Location: Edinburgh
(55.9500°N, 3.1600°W)
Time: 10:24:21
(UTC+01:00)

Vanguard 2 - Visible Passes

Search period start: 24 June 2018 00:00
Search period end: 04 July 2018 00:00
Orbit: 553 x 2939 km, 32.9° (Epoch: 23 June)

Date Brightness Start Highest point End Pass type
(mag) Time Alt. Az. Time Alt. Az. Time Alt. Az.
29 Jun 10.2 03:03:43 10° SSW 03:06:10 11° S 03:08:21 10° SSE visible
30 Jun 10.5 01:16:53 10° SSE 01:16:53 10° SSE 01:17:56 10° SSE visible
30 Jun 10.1 03:20:18 10° SSW 03:23:44 12° S 03:26:41 10° SSE visible
01 Jul 10.4 01:31:54 13° S 01:33:42 13° S 01:37:41 10° SE visible
02 Jul 10.3 01:45:11 10° SSW 01:51:17 16° S 01:56:10 10° SE visible
02 Jul 10.7 23:55:18 10° S 00:00:45 13° SSE 00:05:27 10° SE visible
03 Jul 10.2 02:01:57 10° SW 02:08:52 17° S 02:14:14 10° SE visible
